Temp
-13 -14 -14 -14 -14 -13 -14 -15 -15 -14 -14 -14 -14 -14 -14 -14 -13 -13 -13 -13 -12 -12 -12 -12 -12 -12 -12 -12 -11 -11 -11 -10 -10 -10 -10 -10 -10 -9 -9 -9 -9 -9 -9 -9 -9
-14 -14 -14 -15 -15 -14 -13 -14 -15 -15 -15 -14 -14 -14 -14 -14 -14 -14 -13 -13 -13 -13 -12 -12 -12 -12 -12 -12 -12 -11 -11 -11 -11 -11 -10 -10 -10 -10 -9 -9 -9 -9 -9 -9 -9
-15 -15 -14 -15 -15 -15 -15 -14 -14 -15 -16 -15 -15 -14 -14 -14 -14 -14 -14 -13 -13 -13 -13 -12 -12 -12 -12 -12 -11 -11 -11 -11 -11 -11 -11 -10 -10 -10 -9 -9 -10 -9 -9 -9 -9
-15 -15 -15 -15 -15 -16 -16 -15 -14 -14 -15 -16 -15 -15 -14 -15 -14 -14 -15 -14 -14 -14 -13 -13 -12 -12 -12 -12 -11 -11 -11 -12 -11 -11 -11 -10 -10 -10 -9 -9 -10 -10 -9 -9 -9
-15 -16 -16 -16 -16 -16 -16 -16 -16 -15 -15 -16 -17 -16 -15 -15 -15 -15 -15 -15 -15 -14 -14 -14 -13 -13 -13 -12 -12 -11 -12 -12 -11 -11 -11 -10 -10 -9 -9 -9 -10 -10 -9 -10 -10
-16 -16 -17 -16 -16 -17 -17 -17 -16 -16 -16 -17 -17 -17 -16 -16 -16 -16 -15 -15 -15 -15 -15 -14 -14 -14 -13 -13 -12 -11 -12 -12 -11 -11 -11 -10 -10 -9 -10 -10 -10 -10 -10 -9 -10
-17 -17 -17 -17 -17 -17 -17 -17 -17 -17 -16 -16 -17 -17 -16 -17 -17 -16 -16 -15 -15 -15 -15 -15 -14 -14 -13 -13 -13 -12 -12 -12 -12 -12 -11 -11 -10 -11 -11 -10 -10 -10 -10 -10 -10
-16 -16 -16 -16 -16 -16 -17 -17 -17 -17 -17 -16 -16 -16 -16 -18 -17 -17 -17 -16 -16 -15 -16 -15 -15 -14 -14 -13 -14 -13 -13 -12 -12 -12 -12 -12 -11 -12 -11 -11 -11 -10 -10 -10 -10
-16 -16 -16 -16 -16 -16 -16 -16 -16 -17 -16 -16 -16 -16 -16 -17 -18 -19 -18 -17 -16 -15 -16 -15 -15 -15 -14 -14 -14 -14 -13 -13 -13 -13 -13 -12 -13 -12 -12 -11 -11 -11 -11 -11 -10
-17 -16 -16 -16 -17 -16 -16 -16 -16 -17 -17 -17 -16 -16 -16 -17 -18 -18 -18 -18 -17 -16 -16 -16 -15 -15 -15 -14 -13 -14 -14 -14 -14 -14 -13 -12 -13 -13 -12 -12 -12 -12 -12 -11 -12
-17 -16 -17 -16 -16 -16 -16 -16 -16 -16 -17 -17 -17 -17 -17 -17 -17 -18 -18 -18 -18 -17 -16 -16 -16 -14 -15 -15 -15 -14 -14 -14 -14 -13 -13 -13 -13 -12 -12 -12 -12 -12 -12 -12 -12
-17 -17 -16 -16 -16 -16 -16 -16 -17 -18 -18 -19 -19 -18 -17 -18 -18 -17 -17 -17 -17 -17 -17 -17 -15 -16 -16 -16 -15 -15 -14 -14 -14 -13 -13 -13 -13 -13 -12 -12 -12 -12 -12 -12 -12
-17 -17 -16 -16 -17 -18 -19 -20 -21 -23 -21 -20 -21 -20 -19 -20 -20 -19 -18 -18 -18 -18 -18 -17 -16 -17 -16 -16 -15 -15 -15 -14 -14 -14 -13 -13 -13 -13 -12 -12 -12 -12 -12 -12 -12
-17 -17 -17 -19 -21 -23 -24 -25 -26 -26 -27 -22 -24 -23 -21 -21 -20 -20 -19 -19 -19 -18 -18 -18 -17 -17 -16 -16 -16 -15 -15 -15 -15 -14 -14 -13 -13 -13 -13 -12 -12 -12 -12 -12 -12
-17 -19 -21 -23 -25 -27 -27 -28 -27 -27 -26 -25 -25 -25 -24 -22 -21 -21 -21 -20 -19 -19 -19 -18 -18 -18 -17 -17 -17 -16 -16 -16 -15 -14 -14 -13 -13 -12 -13 -12 -13 -12 -12 -12 -12
-19 -22 -24 -26 -28 -28 -28 -28 -27 -27 -26 -26 -25 -25 -25 -24 -23 -23 -23 -22 -21 -21 -20 -19 -19 -18 -18 -17 -17 -16 -16 -16 -15 -15 -13 -13 -13 -12 -13 -12 -13 -13 -12 -12 -12
-22 -24 -26 -28 -28 -29 -29 -29 -28 -27 -27 -26 -26 -26 -26 -25 -24 -24 -24 -22 -21 -20 -20 -19 -19 -18 -18 -18 -17 -16 -16 -16 -15 -14 -13 -13 -13 -11 -13 -13 -12 -13 -12 -12 -12
-24 -27 -28 -29 -29 -29 -29 -29 -28 -27 -27 -26 -26 -26 -26 -26 -25 -25 -24 -24 -23 -22 -21 -20 -20 -18 -18 -18 -17 -17 -17 -16 -15 -14 -14 -13 -12 -12 -13 -13 -13 -13 -13 -13 -12
-26 -28 -29 -29 -29 -29 -29 -29 -28 -28 -27 -27 -26 -26 -26 -26 -26 -25 -25 -24 -24 -23 -22 -21 -21 -20 -20 -19 -19 -18 -17 -17 -16 -15 -15 -13 -13 -13 -13 -13 -13 -13 -13 -13 -13
-28 -29 -29 -29 -29 -29 -29 -29 -28 -27 -27 -27 -26 -26 -26 -26 -25 -25 -25 -24 -24 -24 -23 -23 -22 -22 -21 -20 -19 -18 -19 -18 -17 -16 -15 -14 -13 -13 -13 -13 -13 -13 -13 -13 -13
-29 -30 -30 -30 -29 -30 -29 -29 -28 -28 -27 -27 -26 -26 -26 -26 -25 -25 -25 -25 -25 -24 -24 -24 -23 -22 -22 -20 -19 -19 -18 -17 -17 -16 -15 -15 -14 -14 -13 -13 -13 -13 -13 -13 -13
-30 -30 -30 -30 -30 -30 -29 -29 -29 -28 -27 -27 -26 -26 -26 -26 -26 -25 -25 -25 -25 -25 -25 -24 -24 -23 -22 -21 -20 -20 -19 -19 -17 -16 -15 -15 -15 -14 -14 -14 -14 -14 -14 -13 -13
-30 -30 -30 -30 -30 -30 -29 -29 -29 -28 -28 -27 -26 -26 -26 -26 -26 -25 -25 -25 -25 -25 -25 -24 -24 -23 -23 -22 -21 -20 -19 -18 -17 -17 -16 -16 -15 -15 -14 -14 -14 -14 -14 -14 -14
-30 -30 -30 -30 -30 -29 -29 -29 -29 -28 -28 -27 -27 -26 -26 -26 -25 -25 -25 -25 -25 -25 -24 -25 -24 -24 -23 -22 -21 -20 -19 -18 -18 -17 -16 -16 -16 -16 -16 -15 -14 -14 -14 -14 -14
-30 -30 -30 -30 -29 -29 -29 -28 -28 -28 -28 -28 -27 -26 -26 -25 -26 -25 -26 -25 -25 -25 -25 -25 -24 -24 -24 -23 -22 -21 -20 -19 -19 -17 -17 -16 -16 -17 -16 -16 -15 -15 -14 -14 -14
-30 -30 -30 -29 -29 -29 -28 -28 -28 -28 -28 -28 -27 -27 -26 -26 -26 -26 -25 -25 -25 -25 -24 -24 -24 -24 -24 -23 -23 -21 -21 -21 -19 -19 -18 -17 -17 -17 -16 -16 -16 -15 -15 -15 -15
-30 -30 -30 -29 -29 -29 -28 -28 -28 -28 -28 -28 -27 -27 -26 -26 -26 -26 -25 -25 -25 -25 -25 -24 -24 -23 -23 -23 -22 -22 -20 -20 -19 -19 -18 -16 -17 -17 -17 -16 -16 -16 -16 -16 -15
Height
5714 5712 5708 5707 5705 5702 5699 5699 5701 5701 5702 5702 5703 5704 5706 5708 5709 5712 5715 5719 5722 5724 5728 5730 5734 5736 5739 5742 5746 5750 5753 5759 5764 5767 5770 5772 5775 5777 5781 5783 5785 5788 5791 5793 5794
5704 5701 5698 5696 5695 5693 5689 5686 5686 5689 5691 5692 5693 5695 5696 5699 5701 5703 5707 5709 5713 5716 5719 5722 5725 5728 5732 5735 5738 5742 5746 5752 5757 5758 5761 5764 5767 5770 5774 5778 5780 5783 5785 5787 5788
5692 5690 5688 5684 5681 5680 5679 5676 5674 5674 5677 5680 5682 5684 5687 5689 5692 5694 5696 5698 5702 5707 5710 5713 5716 5720 5724 5727 5731 5735 5740 5743 5747 5750 5753 5757 5760 5763 5767 5771 5775 5777 5778 5781 5782
5682 5679 5674 5672 5669 5668 5666 5665 5663 5662 5663 5667 5668 5673 5676 5679 5682 5683 5686 5689 5692 5696 5699 5703 5707 5710 5715 5719 5723 5727 5730 5734 5738 5741 5745 5749 5752 5755 5759 5763 5766 5768 5771 5775 5777
5670 5667 5663 5660 5658 5656 5655 5655 5652 5651 5651 5652 5655 5658 5662 5668 5669 5672 5676 5679 5682 5686 5690 5694 5698 5701 5705 5709 5713 5717 5722 5724 5728 5732 5736 5741 5743 5747 5751 5754 5758 5761 5765 5767 5769
5659 5656 5651 5648 5646 5645 5644 5643 5642 5641 5640 5640 5641 5643 5647 5655 5656 5660 5664 5668 5671 5675 5679 5684 5688 5692 5695 5700 5704 5709 5712 5716 5720 5723 5728 5732 5735 5739 5743 5746 5750 5753 5756 5759 5761
5648 5645 5642 5637 5634 5631 5630 5630 5631 5631 5629 5629 5629 5630 5635 5641 5638 5646 5651 5655 5659 5664 5669 5673 5678 5682 5687 5691 5695 5699 5704 5707 5712 5716 5720 5724 5728 5733 5733 5737 5742 5744 5748 5751 5753
5637 5632 5627 5624 5619 5617 5615 5613 5614 5615 5616 5616 5616 5617 5621 5627 5626 5631 5636 5642 5647 5652 5657 5662 5667 5671 5676 5681 5687 5691 5695 5699 5703 5708 5712 5716 5724 5724 5727 5731 5734 5737 5740 5743 5745
5623 5619 5614 5610 5604 5600 5597 5595 5596 5595 5597 5598 5600 5603 5608 5616 5617 5617 5621 5627 5632 5638 5645 5650 5656 5661 5667 5672 5677 5680 5686 5691 5697 5701 5704 5709 5717 5717 5719 5723 5726 5730 5733 5735 5738
5610 5605 5600 5593 5587 5583 5577 5575 5575 5574 5577 5578 5582 5586 5592 5600 5604 5607 5611 5612 5620 5625 5631 5639 5643 5650 5656 5661 5668 5676 5681 5686 5691 5695 5697 5702 5708 5709 5712 5716 5720 5723 5726 5729 5733
5594 5587 5580 5572 5565 5558 5554 5551 5551 5549 5549 5557 5563 5567 5571 5580 5588 5592 5597 5600 5605 5612 5619 5626 5631 5638 5650 5658 5660 5666 5672 5677 5681 5685 5687 5693 5699 5701 5705 5709 5714 5718 5722 5725 5728
5576 5568 5558 5549 5541 5533 5525 5521 5520 5519 5521 5529 5537 5543 5550 5557 5568 5577 5582 5589 5594 5602 5606 5613 5619 5630 5638 5643 5649 5655 5661 5667 5672 5675 5679 5684 5691 5695 5699 5706 5710 5713 5716 5719 5720
5556 5544 5532 5522 5512 5503 5495 5493 5491 5493 5492 5502 5511 5522 5533 5537 5549 5561 5567 5574 5582 5588 5596 5602 5611 5619 5625 5633 5639 5646 5653 5659 5664 5667 5671 5677 5684 5689 5694 5700 5703 5707 5711 5713 5717
5532 5519 5504 5492 5484 5478 5474 5472 5474 5478 5476 5483 5489 5500 5511 5520 5527 5540 5551 5560 5567 5576 5582 5586 5595 5604 5613 5621 5629 5636 5644 5650 5655 5660 5663 5669 5675 5681 5686 5693 5697 5702 5706 5709 5711
5508 5493 5480 5469 5467 5463 5462 5463 5465 5469 5468 5474 5477 5487 5494 5502 5517 5525 5537 5544 5552 5561 5570 5578 5587 5595 5604 5615 5621 5629 5635 5641 5646 5650 5654 5661 5666 5675 5679 5685 5692 5696 5700 5702 5705
5487 5472 5464 5459 5455 5453 5454 5456 5458 5462 5462 5464 5472 5480 5483 5489 5500 5507 5518 5529 5539 5548 5556 5564 5574 5581 5591 5600 5607 5615 5624 5630 5636 5640 5643 5652 5657 5667 5672 5681 5685 5687 5692 5695 5698
5469 5459 5453 5449 5448 5447 5448 5449 5453 5451 5459 5463 5469 5473 5477 5480 5488 5495 5506 5512 5522 5532 5542 5551 5561 5570 5579 5588 5595 5603 5612 5617 5625 5628 5633 5644 5646 5660 5667 5673 5677 5682 5686 5689 5691
5457 5450 5444 5442 5442 5442 5442 5444 5446 5450 5455 5459 5465 5469 5473 5475 5480 5486 5495 5503 5514 5527 5535 5543 5551 5559 5569 5578 5589 5596 5603 5609 5615 5620 5627 5635 5635 5653 5662 5668 5672 5676 5680 5682 5685
5449 5443 5439 5438 5437 5437 5438 5439 5442 5448 5452 5456 5461 5464 5469 5473 5477 5482 5489 5497 5506 5514 5523 5532 5539 5549 5560 5568 5576 5582 5589 5601 5606 5612 5619 5627 5631 5648 5655 5660 5664 5669 5672 5675 5678
5444 5438 5436 5434 5433 5432 5434 5436 5440 5444 5448 5451 5456 5461 5465 5469 5474 5478 5483 5490 5497 5505 5516 5524 5530 5539 5547 5554 5562 5573 5584 5591 5597 5604 5610 5618 5623 5637 5646 5651 5657 5661 5664 5667 5670
5439 5435 5433 5432 5429 5429 5430 5432 5436 5439 5444 5447 5451 5456 5460 5465 5469 5475 5481 5487 5492 5500 5506 5512 5518 5528 5535 5544 5555 5562 5569 5579 5586 5594 5602 5610 5616 5627 5637 5643 5648 5652 5656 5659 5662
5436 5433 5430 5430 5429 5427 5427 5428 5431 5435 5439 5443 5448 5453 5457 5462 5467 5471 5478 5483 5488 5493 5499 5506 5513 5518 5530 5535 5543 5552 5560 5572 5579 5587 5593 5599 5609 5616 5627 5634 5639 5645 5649 5653 5655
5433 5430 5428 5427 5426 5425 5426 5427 5429 5432 5436 5441 5446 5450 5454 5458 5464 5469 5474 5479 5484 5490 5494 5503 5505 5512 5517 5524 5533 5543 5553 5564 5570 5575 5583 5592 5603 5610 5620 5627 5632 5636 5640 5644 5647
5430 5428 5426 5424 5424 5425 5426 5426 5428 5431 5434 5438 5443 5448 5453 5457 5462 5466 5470 5475 5479 5484 5489 5492 5497 5502 5508 5521 5531 5534 5541 5551 5557 5562 5573 5580 5590 5601 5610 5616 5622 5628 5632 5636 5639
5428 5426 5425 5424 5425 5426 5427 5427 5428 5429 5432 5435 5441 5444 5449 5454 5459 5463 5467 5470 5474 5479 5484 5488 5494 5499 5505 5509 5515 5522 5534 5543 5546 5560 5561 5576 5582 5597 5603 5609 5614 5620 5625 5628 5632
5427 5426 5425 5425 5426 5426 5426 5425 5424 5425 5426 5431 5437 5442 5446 5450 5455 5460 5464 5467 5472 5476 5480 5484 5489 5492 5496 5500 5506 5512 5518 5526 5537 5548 5554 5566 5574 5587 5592 5599 5605 5611 5616 5621 5625
5429 5428 5426 5426 5426 5426 5425 5424 5423 5423 5423 5427 5434 5440 5445 5449 5453 5458 5461 5463 5468 5473 5477 5479 5481 5484 5490 5494 5497 5498 5510 5519 5531 5538 5546 5553 5571 5578 5583 5590 5596 5602 5608 5613 5616
Wind_Speed
38 35 32 30 32 38 45 42 39 39 40 39 41 40 41 40 38 40 41 40 40 39 38 37 37 38 38 37 38 39 41 38 35 35 35 34 33 34 33 32 30 29 29 30 31
38 37 36 34 34 33 37 44 46 41 42 42 40 39 40 42 42 39 38 41 42 42 42 41 40 41 41 40 40 40 40 37 37 38 39 38 37 36 36 34 32 31 32 34 35
37 36 39 39 38 36 34 39 45 46 44 45 44 42 41 41 42 42 40 39 39 42 43 44 44 43 43 44 42 41 39 39 40 41 41 41 40 38 38 37 34 34 36 37 37
40 39 40 39 39 39 34 36 40 46 44 44 44 46 46 40 40 43 42 41 39 38 42 43 45 45 45 45 45 43 41 41 41 42 43 43 42 41 40 39 38 38 38 38 38
41 41 40 36 36 35 33 33 36 40 44 42 41 47 46 48 42 38 42 43 41 40 40 42 44 44 44 45 46 45 42 41 42 44 45 45 44 43 41 41 40 39 39 40 41
45 42 40 37 36 35 34 32 32 37 40 42 39 39 47 52 52 48 42 44 44 43 41 41 42 43 44 44 46 46 43 40 42 44 45 44 44 43 41 40 39 38 39 40 41
45 44 44 42 42 44 42 40 38 35 38 41 41 38 39 37 50 61 48 44 46 46 44 43 43 44 45 43 44 44 43 41 40 41 43 42 43 38 38 37 34 35 36 37 37
46 46 46 47 49 50 52 51 47 46 42 42 43 42 37 35 39 41 50 47 45 48 47 46 44 46 45 45 42 43 43 42 40 38 39 39 34 32 34 33 33 32 32 33 34
48 50 51 54 57 58 59 59 57 56 52 52 50 45 41 37 39 42 43 51 49 49 50 48 46 46 45 45 44 44 45 42 37 36 38 38 28 31 32 32 31 30 29 29 29
53 53 54 60 62 62 63 62 62 63 60 59 57 54 47 42 40 41 41 44 51 49 50 52 49 48 47 47 45 40 39 37 35 34 35 35 29 33 32 29 29 29 27 26 23
58 59 63 66 69 69 68 69 69 69 65 61 59 57 55 49 46 46 44 45 42 53 51 52 54 50 45 42 40 40 40 39 38 37 38 37 34 38 36 35 31 26 25 25 23
63 66 70 72 74 75 76 75 72 71 67 58 56 59 59 56 52 51 51 50 46 43 51 51 56 50 47 48 46 43 42 41 40 41 40 38 37 39 38 30 28 27 28 26 27
71 75 77 79 78 74 68 63 62 51 61 61 51 54 57 60 56 54 54 52 50 47 44 54 48 50 50 50 49 45 43 41 42 43 42 40 38 39 36 32 32 31 27 26 23
79 81 79 74 65 54 45 37 26 24 40 51 47 46 54 59 61 60 57 56 54 50 51 52 54 50 54 53 51 49 45 43 42 44 46 42 41 41 38 33 34 32 30 26 26
82 79 68 57 43 29 28 19 20 23 34 37 37 33 40 57 57 59 58 60 58 56 55 52 51 52 49 50 49 47 44 44 45 46 48 45 44 42 39 35 33 32 29 28 26
78 66 51 39 21 26 23 19 24 31 17 33 27 18 20 36 56 57 55 59 57 55 55 57 53 54 55 51 52 52 47 48 47 48 52 48 46 42 41 34 34 35 32 29 26
67 53 36 25 25 22 19 20 29 32 21 22 17 14 14 18 40 52 55 59 61 59 60 60 58 57 55 56 57 55 52 52 53 54 55 49 51 41 39 37 37 34 31 29 27
54 35 28 27 22 22 20 17 26 23 28 10 10 14 9 16 30 37 49 52 52 54 51 54 56 57 55 54 56 56 53 54 56 57 55 50 54 42 36 38 36 34 32 30 27
40 28 26 22 19 16 17 19 19 21 28 18 25 20 18 20 19 20 31 43 49 53 53 52 51 51 48 48 52 57 56 55 54 56 55 51 51 39 37 37 38 37 33 30 29
29 26 23 19 15 12 14 15 17 25 29 13 23 20 20 23 21 22 27 31 37 44 47 48 48 48 48 48 52 54 50 52 55 55 56 54 51 42 39 38 38 36 35 33 30
24 22 18 16 11 11 13 13 17 15 27 17 21 22 19 22 23 21 22 25 31 38 43 46 50 50 49 52 51 56 59 56 56 55 56 53 53 45 41 39 37 38 38 33 31
21 17 16 12 12 8 10 17 10 20 26 24 23 17 21 23 20 24 23 26 27 32 36 41 45 49 48 50 50 53 54 53 53 54 55 54 49 47 44 40 39 37 34 32 31
19 17 15 10 12 9 7 12 13 17 25 22 28 30 20 23 26 21 21 24 29 32 33 34 34 39 36 51 52 53 55 56 57 54 54 52 50 46 41 39 39 36 35 34 32
17 14 12 12 2 1 4 7 10 17 24 27 25 26 9 25 26 22 21 23 26 29 35 40 45 37 33 40 47 56 57 58 60 61 58 55 51 47 40 42 41 40 38 36 34
15 8 7 7 6 4 8 7 7 10 25 30 26 31 22 16 26 27 22 19 19 28 28 34 35 41 38 41 44 47 53 54 59 57 58 53 51 38 39 38 38 38 39 37 34
11 6 4 2 7 5 5 7 7 10 18 26 29 25 22 19 26 26 21 23 24 23 26 27 24 34 38 37 40 46 53 56 57 56 56 52 50 39 41 40 41 40 37 34 34
6 11 5 1 3 5 5 7 0 9 16 22 26 25 19 21 22 21 19 22 26 25 23 31 26 32 35 36 39 47 49 55 56 57 57 57 45 38 39 40 40 39 38 39 39
Wind_Direction
305 301 295 291 283 279 280 272 263 256 257 255 253 251 249 246 242 242 240 238 235 234 234 231 232 232 229 226 227 230 231 230 228 227 229 230 228 230 232 233 233 234 236 238 239
300 299 298 295 290 279 275 276 271 258 255 255 254 251 248 249 244 240 240 239 239 236 234 232 231 232 233 229 229 230 231 231 231 229 229 230 229 230 233 236 235 237 240 241 243
298 297 295 291 289 286 275 270 272 268 258 249 251 249 252 247 246 243 237 237 239 238 237 235 233 233 234 234 231 231 232 233 233 232 230 232 233 232 234 237 240 238 239 241 243
297 296 292 293 290 289 280 265 264 270 268 258 247 248 245 248 246 244 242 236 234 236 237 237 234 232 233 234 234 233 233 235 235 235 234 234 234 235 236 237 240 242 243 244 245
294 296 295 295 291 290 286 272 264 266 270 269 259 244 243 241 246 242 243 239 235 232 234 235 235 231 232 232 233 231 232 234 236 236 236 235 236 237 238 239 240 242 244 245 246
299 300 299 299 296 292 287 282 272 265 265 268 266 258 249 241 242 245 242 242 236 233 230 232 232 233 231 232 231 230 229 232 234 236 237 236 236 237 238 240 240 240 242 244 246
303 302 301 301 299 297 293 287 282 270 267 266 266 260 256 249 245 236 240 237 237 235 232 230 230 231 231 231 231 231 228 228 232 235 236 235 234 233 233 234 236 236 237 240 246
306 303 301 302 299 295 294 290 286 280 273 267 263 262 256 246 247 241 230 232 233 233 232 230 230 230 230 231 231 233 230 228 228 232 233 231 227 232 235 234 231 232 234 237 241
308 305 304 299 295 292 289 287 285 282 278 274 269 261 255 244 246 245 243 226 229 229 232 229 228 231 229 230 230 230 229 229 227 231 236 234 225 228 230 228 228 226 225 228 234
307 301 298 297 295 291 287 283 281 277 274 270 267 265 257 246 239 240 242 246 226 226 227 230 228 228 232 229 231 232 234 231 232 229 234 233 224 220 219 217 215 214 217 222 227
308 305 303 301 298 293 288 284 279 274 267 262 261 260 256 244 233 235 233 235 241 224 224 227 229 229 230 233 230 228 228 228 225 225 227 228 219 216 217 213 211 215 217 219 221
311 308 305 301 297 292 285 281 276 274 269 260 252 251 252 243 232 229 230 230 235 235 222 225 225 227 227 228 227 224 224 224 223 223 225 228 218 217 219 212 212 216 218 218 221
313 309 306 301 295 290 284 278 273 269 267 263 249 242 242 242 233 228 228 226 226 227 228 223 227 229 226 226 226 225 225 225 224 224 225 225 217 218 220 214 213 213 209 212 219
314 312 307 303 298 293 284 278 272 249 258 257 252 246 236 234 233 227 224 226 223 222 221 225 219 225 224 223 224 223 224 225 226 227 226 224 218 216 221 214 216 210 210 214 222
316 312 310 305 297 282 271 252 239 200 250 257 258 250 242 229 231 229 226 225 225 220 219 223 223 226 229 227 226 225 222 226 227 227 227 224 225 213 221 217 212 213 214 221 226
317 314 310 298 275 267 266 246 197 210 243 244 265 265 260 227 223 224 223 224 227 224 221 222 221 223 221 224 222 223 220 224 226 228 227 224 226 210 220 217 212 215 215 221 229
318 316 306 286 271 273 270 248 211 222 236 242 258 262 265 219 215 222 223 220 218 220 219 219 221 221 220 220 222 222 218 221 224 226 226 221 226 210 214 217 216 215 218 223 231
321 313 296 295 291 271 264 248 224 228 216 189 226 235 227 193 208 217 220 221 220 223 225 224 222 221 220 220 223 224 222 221 225 226 229 225 227 219 218 218 221 219 221 228 234
321 302 301 305 295 275 259 227 226 221 214 239 233 246 240 206 204 208 213 221 221 219 221 221 222 222 224 224 220 219 220 222 225 229 231 227 230 224 222 219 219 222 224 229 233
320 304 307 311 303 273 240 247 206 206 214 233 226 216 224 214 203 212 210 210 211 215 219 224 227 223 220 219 217 219 220 220 222 227 229 230 230 225 221 222 221 221 224 226 232
319 310 311 321 299 264 245 231 232 216 216 218 196 208 209 207 202 199 206 210 208 205 211 216 221 220 221 218 216 217 218 215 218 224 229 231 232 229 224 223 224 226 226 227 233
321 313 305 315 301 278 256 214 216 224 212 221 197 187 204 210 213 212 196 199 201 202 214 220 226 229 226 223 219 217 215 219 224 224 225 228 230 232 225 225 227 228 228 232 233
323 313 309 304 307 278 246 240 226 219 223 221 210 206 205 202 206 200 209 210 211 209 213 206 208 232 230 228 223 218 217 215 219 223 226 231 231 234 230 228 229 229 227 227 228
330 324 322 309 321 312 320 242 219 234 229 225 215 201 215 209 205 205 220 207 198 212 221 222 215 213 227 232 229 223 216 215 217 222 224 226 228 225 229 229 229 230 231 231 230
345 336 350 103 62 14 345 338 256 244 230 236 217 216 208 201 215 215 218 226 216 210 217 223 228 226 225 229 223 219 221 221 220 221 225 225 229 227 227 229 229 232 234 234 229
13 28 82 116 115 75 3 357 263 254 234 228 217 202 215 202 205 218 211 233 222 222 228 225 226 229 223 231 231 226 220 216 216 221 227 226 227 221 224 225 226 227 230 230 229
52 33 49 170 317 302 330 355 240 279 201 204 216 214 207 209 211 220 237 215 218 227 229 230 228 226 222 226 228 229 222 221 220 219 223 224 222 220 223 225 228 227 229 231 230